Location: Recife
(8.0585°S, 34.8848°W)
Time: 11:14:40
(UTC-03:00)

Explorer 11/Cluster Stage 4 - Pass Details

Date: 20 April 2026
Orbit: 463 x 1174 km, 28.8° (Epoch: 20 May)

Event Time Altitude Azimuth Distance (km) Brightness Sun altitude
Rises 04:52:19 0° 261° (W) 2,585 - -8.0°
Exits shadow 04:54:21 - 272° (W) 1,861 7.9 -7.5°
Reaches altitude 10° 04:54:39 10° 274° (W) 1,768 7.8 -7.4°
Maximum altitude 04:58:04 26° 332° (NNW) 1,150 7.3 -6.6°
Drops below altitude 10° 05:02:01 10° 29° (NNE) 2,054 9.4 -5.6°
Sets 05:04:57 0° 41° (NE) 3,106 10.6 -4.9°
